Regional Weather Roundup
Issued by NWS

Home | Current Version | Previous Version | Graphics & Text | Print | Product List | Glossary On
Versions: 1 2 3 4 5 6 7 8 9 10 11 12 13 14 15 16 17 18 19 20 21 22 23 24 25 26 27 28 29 30 31 32 33 34 35 36 37 38 39 40 41 42 43 44 45 46 47 48 49 50
000
ASUS43 KLMK 270402
RWRKY
KENTUCKY REGIONAL WEATHER ROUNDUP
NATIONAL WEATHER SERVICE LOUISVILLE KY
1200 AM EDT MON MAR 27 2017

NOTE "FAIR" INDICATES FEW OR NO CLOUDS BELOW 12,000 FEET
WITH NO SIGNIFICANT WEATHER AND/OR OBSTRUCTIONS TO VISIBILITY.

KYZ001>023-026-027-061>063-070>075-270500-
WESTERN AND SOUTH CENTRAL KENTUCKY

CITY           SKY/WX    TMP DP  RH WIND       PRES   REMARKS
PADUCAH        PTCLDY    54  50  86 SE5       29.94F
HENDERSON      MOCLDY    50  45  81 CALM      29.97F
OWENSBORO      PTCLDY    53  48  83 CALM      29.99F
HOPKINSVILLE   CLOUDY    57  51  81 CALM      29.98F
BOWLING GREEN  CLOUDY    57  52  83 CALM      30.00S
GLASGOW        NOT AVBL
$$

KYZ024-025-028>034-038-045-046-053-270500-
NORTH CENTRAL KENTUCKY

CITY           SKY/WX    TMP DP  RH WIND       PRES   REMARKS
LOUISVILLE/SDF CLOUDY    58  48  69 W6        29.99S
LOUISVILLE/LOU CLOUDY    59  48  67 W3        30.00R
FORT KNOX      CLOUDY    53  48  84 CALM      29.98S
$$

KYZ035>037-039>044-047>052-055>060-089>105-270500-
NORTHEAST KENTUCKY

CITY           SKY/WX    TMP DP  RH WIND       PRES   REMARKS
LEXINGTON      CLOUDY    59  54  83 NW5       30.00R
COVINGTON      CLEAR     55  53  93 W6        29.98R
FRANKFORT      CLOUDY    59  52  77 W3        29.99R
$$

KYZ054-064>069-076>088-106>120-270500-
SOUTHEAST KENTUCKY

CITY           SKY/WX    TMP DP  RH WIND       PRES   REMARKS
JACKSON        PTCLDY    60  55  83 S6        30.01F
LONDON         MOCLDY    61  54  77 SW5       30.03S
SOMERSET       NOT AVBL
MIDDLESBORO    PTCLDY    55  54  97 CALM      30.06S
MONTICELLO     CLOUDY    62  53  72 SW13G18   30.04S
$$





USA.gov is the U.S. government's official web portal to all federal, state and local government web resources and services.